Miscellaneous Local Product
Issued by NWS North Platte, NE

Home | Current Version | Previous Version | Graphics & Text | Print | Product List | Glossary On
Versions: 1 2 3 4 5 6 7 8 9 10 11 12 13 14 15 16 17 18 19 20 21 22 23 24 25 26 27 28 29 30 31 32 33 34 35 36 37 38 39 40 41 42 43 44 45 46 47 48 49 50
000
AXUS43 KLBF 270310
MISLBF


WESTERN AND NORTH CENTRAL NEBRASKA HOURLY WEATHER ROUNDUP
NATIONAL WEATHER SERVICE NORTH PLATTE NE
900 PM CST WED NOV 26 2014

***STATIONS NOT REPORTING VARIABLES SUCH AS SKY/WEATHER OR
PRESSURE ARE PROVIDED BY THE NEBRASKA DEPARTMENT OF
ROADS...RAWS...AND APRS NETWORKS...AND ARE NOT UNDER
NATIONAL WEATHER SERVICE QUALITY CONTROL***

...OBSERVATIONS IN AND NEAR THE EASTERN PANHANDLE OF NEBRASKA...

CITY           SKY/WX    TMP DP  RH WIND       PRES   REMARKS
PINE RIDGE     CLOUDY    29  24  82 CALM      30.29R
CHADRON        CLOUDY   N/A N/A N/A CALM      30.28R
ALLIANCE       MOCLDY    25  24  96 S6        30.27F WCI  18
SIDNEY         FOG       19  17  92 S6        30.29R VSB 3/4 WCI  11
WHITECLAY        N/A     27  22  82 CALM        N/A
CRESCENT LAKE    N/A     26  24  92 SW6         N/A  WCI  19
LISCO            N/A     25  22  87 NE6         N/A  WCI  18
BIG SPRINGS      N/A     30  29  95 CALM        N/A
$$

...OBSERVATIONS IN NORTH CENTRAL NEBRASKA...

CITY           SKY/WX    TMP DP  RH WIND       PRES   REMARKS
VALENTINE      CLOUDY    23  18  81 E5        30.35R WCI  17
THEDFORD       MOCLDY    24  19  81 S5        30.34R WCI  18
AINSWORTH      PTCLDY    20  17  87 CALM      30.36S
O`NEILL        MOCLDY    17  12  79 N3        30.40R
ORD            MOCLDY    20  14  77 NW5       30.39R WCI  13
BROKEN BOW     CLOUDY    24  17  74 CALM      30.38R
BROWNLEE         N/A     23  18  80 E7          N/A  WCI  15
SPRINGVIEW       N/A     19  13  79 CALM        N/A
BREWSTER         N/A     24  20  87 CALM        N/A
SARGENT          N/A     19  15  82 CALM        N/A
COMSTOCK         N/A     28  21  76 CALM        N/A
CHAMBERS         N/A     17   6  63 N3          N/A
EWING            N/A     17  12  80 CALM        N/A
$$

...OBSERVATIONS IN SOUTHWEST NEBRASKA AND FAR NORTHEAST COLORADO...

CITY           SKY/WX    TMP DP  RH WIND       PRES   REMARKS
WRAY           MOCLDY    28  26  91 CALM      30.32F
HOLYOKE        FAIR      32  30  93 CALM      30.32R
IMPERIAL       CLOUDY    31  28  89 CALM      30.33S
OGALLALA       CLOUDY    30  30  98 W3        30.33S
NORTH PLATTE   CLOUDY    26  19  74 CALM      30.35S
MCCOOK         CLOUDY    32  21  64 NE6       30.38R WCI  26
LEXINGTON      PTCLDY    26  19  74 CALM      30.37S
PAXTON           N/A     31  28  89 CALM        N/A
BRADY            N/A     26  19  73 CALM        N/A
GOTHENBURG       N/A     30  20  66 CALM        N/A
CALLAWAY         N/A     22  17  82 CALM        N/A
$$

...NORTH PLATTE AREA...

CITY           SKY/WX    TMP DP  RH WIND       PRES   REMARKS
AIRPORT        CLOUDY    26  19  74 CALM      30.35S
DOWNTOWN         N/A     29  20  67 CALM        N/A
$$

...SOME WEATHER OBSERVATIONS FROM AROUND THE REGION...

CITY           SKY/WX    TMP DP  RH WIND       PRES   REMARKS
DENVER         PTCLDY    27  23  85 SW3       30.22S
LARAMIE        CLEAR     39  25  57 W21G31    30.23R WCI  29
CHEYENNE       CLEAR     24  21  88 SW10      30.20S WCI  14
SCOTTSBLUFF    FOG       19  17  92 E8        30.27S VSB 3/4 WCI   9
RAPID CITY     LGT SNOW  28  25  88 E3        30.27F FOG
PIERRE         CLOUDY    15  10  80 NE9       30.41R WCI   3
WINNER         CLOUDY    19  10  68 E8        30.38S WCI   9
SIOUX FALLS    CLOUDY    12   4  70 N14       30.41R WCI  -3
OMAHA          CLOUDY    24  18  77 N12       30.42R WCI  13
GRAND ISLAND   PTCLDY    23  17  78 N6        30.42R WCI  16
KANSAS CITY    CLOUDY    29  22  75 N15G28    30.32R WCI  18
WICHITA        PTCLDY    36  21  54 N15G22    30.39R WCI  27
HAYS           MOCLDY    30  16  55 N8        30.40F WCI  23
LIBERAL        PTCLDY    34  16  47 NE7       30.40R WCI  28
GOODLAND       CLOUDY    26  23  88 SE5       30.33R WCI  20
$$



USA.gov is the U.S. government's official web portal to all federal, state and local government web resources and services.